Somerville, NJ

7:14 PM EDT on March 23, 2017 (GMT -0400)
Somerset

Weather History for KSMQ - November, 2013

Change the Weather History Date:

Friday, November 15, 2013

  Actual Average Record
Temperature  
Mean Temperature 40 °F -  
Max Temperature 57 °F 52 °F 71 °F (1973)
Min Temperature 23 °F 32 °F 15 °F (1986)
Degree Days  
Heating Degree Days 25    
Moisture  
Dew Point 24 °F    
Average Humidity 64    
Maximum Humidity 88    
Minimum Humidity 27    
Precipitation  
Precipitation 0.00 in - - ()
Sea Level Pressure  
Sea Level Pressure 30.21 in    
Wind  
Wind Speed 2 mph (SW)    
Max Wind Speed 6 mph    
Max Gust Speed 28 mph    
Visibility 10 miles    
Events      
Averages and records for this station are not official NWS values.
T = Trace of Precipitation, MM = Missing Value Source: NWS Daily Summary

Daily Weather History Graph

Daily Weather History Graph

Search for Another Location

Airport or City:

Trip Planner

Search our weather history database for the weather conditions in past years. The results will help you decide how hot, cold, wet, or windy it might be!

Date:

Astronomy

Nov. 15, 2013 Rise Set
Actual Time 6:45 AM EST 4:40 PM EST
Civil Twilight 6:16 AM EST 5:10 PM EST
Nautical Twilight 5:43 AM EST 5:43 PM EST
Astronomical Twilight 5:10 AM EST 6:15 PM EST
Moon 3:36 PM EST (11/15) 4:38 AM EST (11/15)
Length of Visible Light 10h 53m
Length of Day
9h 55m
Waxing Gibbous, 96% of the Moon is Illuminated
Nov 15
Waxing Gibbous
Nov 17
Full
Nov 25
Last Quarter
Dec 2
New
Dec 9
First Quarter

Hourly Weather History & Observations

Time (EST) Temp. Windchill Dew Point Humidity Pressure Visibility Wind Dir Wind Speed Gust Speed Precip Events Conditions
12:53 AM 26.1 °F - 19.9 °F 78% 30.20 in 10.0 mi Calm Calm - N/A   Clear
1:53 AM 24.1 °F 18.2 °F 19.9 °F 84% 30.21 in 10.0 mi NNW 4.6 mph - N/A   Clear
2:53 AM 25.0 °F - 19.0 °F 78% 30.21 in 10.0 mi Calm Calm - N/A   Clear
3:53 AM 24.1 °F 18.2 °F 19.0 °F 81% 30.21 in 10.0 mi NW 4.6 mph - N/A   Clear
4:53 AM 23.0 °F - 19.0 °F 85% 30.21 in 10.0 mi Calm Calm - N/A   Clear
5:53 AM 24.1 °F 18.2 °F 19.0 °F 81% 30.22 in 10.0 mi NW 4.6 mph - N/A   Clear
6:53 AM 24.1 °F - 21.0 °F 88% 30.24 in 10.0 mi Calm Calm - N/A   Clear
7:53 AM 27.0 °F - 23.0 °F 85% 30.24 in 10.0 mi Calm Calm - N/A   Clear
8:53 AM 33.1 °F - 26.1 °F 75% 30.25 in 10.0 mi Calm Calm - N/A   Clear
9:53 AM 41.0 °F 39.0 °F 27.0 °F 57% 30.25 in 10.0 mi South 3.5 mph - N/A   Clear
10:53 AM 46.9 °F - 27.0 °F 46% 30.23 in 10.0 mi Calm Calm - N/A   Clear
11:53 AM 51.1 °F - 30.0 °F 44% 30.21 in 10.0 mi SSE 3.5 mph - N/A   Clear
12:53 PM 55.0 °F - 28.9 °F 37% 30.18 in 10.0 mi SSE 4.6 mph - N/A   Clear
1:53 PM 57.9 °F - 24.1 °F 27% 30.17 in 10.0 mi SW 5.8 mph - N/A   Clear
2:53 PM 57.0 °F - 23.0 °F 27% 30.16 in 10.0 mi SSW 5.8 mph - N/A   Clear
3:53 PM 55.0 °F - 24.1 °F 30% 30.17 in 10.0 mi SSW 3.5 mph 27.6 mph N/A   Clear
4:53 PM 48.0 °F - 25.0 °F 41% 30.18 in 10.0 mi Calm Calm - N/A   Clear
5:53 PM 42.1 °F - 27.0 °F 55% 30.19 in 6.0 mi Calm Calm - N/A   Haze
6:53 PM 39.0 °F - 27.0 °F 62% 30.19 in 10.0 mi Calm Calm - N/A   Clear
7:53 PM 36.0 °F - 27.0 °F 70% 30.21 in 10.0 mi Calm Calm - N/A   Clear
8:53 PM 34.0 °F - 26.1 °F 73% 30.22 in 10.0 mi Calm Calm - N/A   Clear
9:53 PM 30.9 °F - 25.0 °F 79% 30.23 in 10.0 mi Calm Calm - N/A   Clear
10:53 PM 30.9 °F - 26.1 °F 82% 30.24 in 10.0 mi Calm Calm - N/A   Clear
11:53 PM 32.0 °F - 27.0 °F 82% 30.24 in 10.0 mi Calm Calm - N/A   Clear